[Iaude] MPEC J306: 2024 JG17 [a=1.48,e=0.36,i=0.8,H=27.4]
    mpec at cfa.harvard.edu 
    mpec at cfa.harvard.edu
       
    Wed May 15 07:40:45 EDT 2024
    
    
  
M.P.E.C. 2024-J306                                 Issued 2024 May 15, 11:38 UT
     The Minor Planet Electronic Circulars contain information on unusual
         minor planets, routine data on comets and natural satellites,
         and occasional editorial announcements.  They are published
    on behalf of Division F of the International Astronomical Union by the
          Minor Planet Center, Smithsonian Astrophysical Observatory,
                          Cambridge, MA 02138, U.S.A.
			  
             Prepared using the Tamkin Foundation Computer Network
                              MPC at CFA.HARVARD.EDU
            URL https://www.minorplanetcenter.net/    ISSN 1523-6714
                                   2024 JG17                                    
Observations:
     K24J17G*1C2024 05 14.33481615 15 37.688+25 23 25.12         19.69GVEJ306G96
     K24J17G 1C2024 05 14.34527715 15 52.243+25 28 35.44         20.10GVEJ306G96
     K24J17G 1C2024 05 14.35050515 15 59.533+25 31 08.51         20.12GVEJ306G96
     K24J17G  C2024 05 14.36642815 16 20.681+25 38 44.70         20.2 GVEJ306H01
     K24J17G  C2024 05 14.37050115 16 26.525+25 40 45.34         19.7 GVEJ306H01
     K24J17G  C2024 05 14.37944215 16 39.444+25 45 10.46         20.3 GVEJ306H01
     K24J17G  C2024 05 14.38739715 16 51.035+25 49 06.65         19.8 GVEJ306H01
     K24J17G KC2024 05 14.40793015 17 22.495+25 59 37.93         20.00GVEJ306I52
     K24J17G KC2024 05 14.40862415 17 23.514+25 59 58.34         20.18GVEJ306I52
     K24J17G KC2024 05 14.40931615 17 24.569+26 00 18.72         20.25GVEJ306I52
     K24J17G KC2024 05 14.41001215 17 25.580+26 00 39.60         19.98GVEJ306I52
     K24J17G KC2024 05 14.44068115 18 11.956+26 15 56.74         20.16GVEJ306I52
     K24J17G KC2024 05 14.44176215 18 13.576+26 16 29.46         20.13GVEJ306I52
     K24J17G 1C2024 05 14.85334 15 31 44.26 +30 00 59.4          20.4 VXEJ306033
     K24J17G 1C2024 05 14.85385 15 31 45.32 +30 01 18.4          20.9 VXEJ306033
     K24J17G 1C2024 05 14.85437 15 31 46.32 +30 01 36.6          20.4 VXEJ306033
     K24J17G KB2024 05 14.90535215 33 28.810+30 34 17.62         18.7 GXEJ306L34
     K24J17G 1C2024 05 14.96306 15 35 24.35 +31 07 16.0          21.0 VXEJ306033
     K24J17G 1C2024 05 14.96358 15 35 25.41 +31 07 34.7          21.0 VXEJ306033
     K24J17G 1C2024 05 14.96409 15 35 26.45 +31 07 53.5          20.8 VXEJ306033
     K24J17G KB2024 05 14.99584715 36 33.014+31 27 26.10         20.5 GXEJ306K74
     K24J17G KB2024 05 15.01770115 37 19.039+31 40 47.32         20.0 GXEJ306K74
     K24J17G KB2024 05 15.03658215 37 59.436+31 52 22.01         19.8 GXEJ306K74
     K24J17G KC2024 05 15.17589215 44 17.027+33 22 02.86         20.49GVEJ306I52
     K24J17G KC2024 05 15.17637215 44 18.190+33 22 21.97         20.11GVEJ306I52
     K24J17G KC2024 05 15.17685215 44 19.324+33 22 41.66         19.62GVEJ306I52
     K24J17G KC2024 05 15.17732715 44 20.440+33 23 00.31         19.86GVEJ306I52
Observer details:
033 Karl Schwarzschild Observatory, Tautenburg.  Observers C. Heogner, F.
    Ludwig, M. Hartmann, B. Stecklum.  Measurer B. Stecklum.  1.34-m f/3
    Schmidt + CCD.
G96 Mt. Lemmon Survey.  Observer D. Rankin.  Measurers T. Beuden, V. F.
    Carvajal, D. Fay, J. B. Fazekas, D. C. Fuls, A. R. Gibbs, A. D. Grauer, H.
    Groeller, J. K. Hogan, R. A. Kowalski, S. M. Larson, G. J. Leonard, D.
    Rankin, R. L. Seaman, F. C. Shelly, K. W. Wierzchos.  1.5-m reflector +
    10K CCD.
H01 Magdalena Ridge Observatory, Socorro.  Observers W. H. Ryan, E. V. Ryan.
    Measurer W. H. Ryan.  2.4-m f/8.9 Ritchey-Chretien + CCD.
I52 Steward Observatory, Mt. Lemmon Station.  Observer K. W. Wierzchos.
    Measurers T. Beuden, V. F. Carvajal, D. Fay, J. B. Fazekas, D. C. Fuls, A.
    R. Gibbs, A. D. Grauer, H. Groeller, J. K. Hogan, R. A. Kowalski, S. M.
    Larson, G. J. Leonard, D. Rankin, R. L. Seaman, F. C. Shelly, K. W.
    Wierzchos.  1.0-m prime focus + CCD.
K74 Muensterschwarzach Observatory, Schwarzach.  Observer C. Gerhard.  0.30-m
    f/3.75 reflector + CMO.
L34 Galhassin Robotic Telescope, Isnello.  Observer A. Nastasi.  0.40-m f/3.8
    400mm Reflector + CMO.
Orbital elements:
2024 JG17                                                Earth MOID = 0.0074 AU
Epoch 2024 Mar. 31.0 TT = JDT 2460400.5                 Veres                   
M 314.98449              (2000.0)            P               Q                  
n   0.54596659     Peri.  104.74019     +0.15305135     +0.98821726             
a   1.4826046      Node   174.06308     -0.91177330     +0.14175520             
e   0.3643325      Incl.    0.77147     -0.38110988     +0.05772450             
P   1.81           H   27.45          G   0.15           U   7                  
Residuals in seconds of arc
240514 G96  0.2+  0.5-    240514 I52  0.1+  0.1-    240514 033  0.1-  0.1+
240514 G96  0.5-  0.1+    240514 I52  0.2-  0.0     240514 033  0.2-  0.3+
240514 G96 (1.3-  1.7-)   240514 I52  0.2+  0.1-    240514 K74  0.3+  0.2+
240514 H01  0.1+  0.1+    240514 I52  0.4-  0.3+    240515 K74  0.1-  0.5-
240514 H01  0.0   0.1+    240514 033  0.2-  0.2-    240515 K74  0.3+  0.0
240514 H01  0.0   0.0     240514 033  0.5+  0.5+    240515 I52  0.1-  0.1-
240514 H01  0.0   0.0     240514 033  0.2+  0.0     240515 I52  0.2+  0.2-
240514 I52  0.1-  0.4+    240514 L34  0.4-  0.2-    240515 I52  0.1+  0.3+
240514 I52  0.3-  0.1+    240514 033  0.0   0.3+    240515 I52  0.1-  0.0
Ephemeris:
2024 JG17                a,e,i = 1.48, 0.36, 1                   q = 0.9424
Date    TT    R. A. (2000) Decl.     Delta      r    Elong.  Phase     V
2024 04 15    13 53 15.3 -08 28 40   0.1596  1.1623   174.9     4.4    24.2
...
2024 04 30    13 59 39.1 -04 24 56   0.08099 1.0864   167.3    11.8    22.9
...
2024 05 08    14 14 00.8 +02 18 48   0.04374 1.0498   157.5    21.6    21.8
...
2024 05 14    15 07 36.7 +22 46 59   0.01890 1.0249   138.4    40.9    20.5
2024 05 15    15 36 44.4 +31 32 25   0.01571 1.0209   129.6    49.8    20.3
2024 05 16    16 29 10.8 +43 03 56   0.01334 1.0171   116.5    62.9    20.3
...
2024 05 22    00 25 30.2 +34 30 24   0.02525 0.9956    48.2   130.7    25.2
...
2024 05 30    01 15 13.4 +20 42 36   0.06016 0.9719    44.8   132.7    27.3
...
2024 06 14    01 40 41.2 +16 02 05   0.1298  0.9455    54.1   119.5    27.7
M. P. C. Staff               (C) Copyright 2024 MPC           M.P.E.C. 2024-J306
    
    
More information about the Iaude
mailing list